This is the latest recevied weather packets stored in our database for station/object YN1ZSC-13. If no packets are shown the sender has not sent any weather packets the latest 10 day(s).
| Time | Temp. | Humidity | Pressure | Rain* | Wind** | Luminosity | Snow |
|---|---|---|---|---|---|---|---|
| 1778336505 | 26.11° C | 74% | 1011 hPa | 0 mm | - | - | - |
| 1778335904 | 26.11° C | 74% | 1011 hPa | 0 mm | - | - | - |
| 1778335303 | 26.11° C | 74% | 1011 hPa | 0 mm | - | - | - |
| 1778334703 | 26.67° C | 74% | 1011 hPa | 0 mm | - | - | - |
| 1778334102 | 24.44° C | 77% | 1011 hPa | 0 mm | - | - | - |
| 1778333501 | 24.44° C | 77% | 1011 hPa | 0 mm | - | - | - |
| 1778332901 | 25° C | 77% | 1011 hPa | 0 mm | - | - | - |
| 1778332300 | 24.44° C | 78% | 1011 hPa | 0 mm | - | - | - |
| 1778331700 | 24.44° C | 78% | 1010 hPa | 0 mm | - | - | - |
| 1778331099 | 24.44° C | 78% | 1010 hPa | 0 mm | - | - | - |
| 1778330499 | 24.44° C | 78% | 1010 hPa | 0 mm | - | - | - |
| 1778329898 | 24.44° C | 78% | 1010 hPa | 0 mm | - | - | - |
| 1778329297 | 25° C | 78% | 1010 hPa | 0 mm | - | - | - |
| 1778328697 | 22.78° C | 80% | 1010 hPa | 0 mm | - | - | - |
| 1778328096 | 23.33° C | 80% | 1010 hPa | 0 mm | - | - | - |
| 1778327495 | 23.33° C | 80% | 1010 hPa | 0 mm | - | - | - |
| 1778326895 | 23.89° C | 80% | 1010 hPa | 0 mm | - | - | - |
| 1778326294 | 23.33° C | 75% | 1010 hPa | 0 mm | - | - | - |
| 1778325694 | 23.33° C | 73% | 1009 hPa | 0 mm | - | - | - |
| 1778325093 | 23.89° C | 73% | 1009 hPa | 0 mm | - | - | - |
| 1778324492 | 23.89° C | 73% | 1009 hPa | 0 mm | - | - | - |
| 1778323892 | 23.89° C | 73% | 1009 hPa | 0 mm | - | - | - |
| 1778323291 | 23.89° C | 71% | 1009 hPa | 0 mm | - | - | - |
| 1778322691 | 23.89° C | 70% | 1009 hPa | 0 mm | - | - | - |
| 1778322090 | 24.44° C | 68% | 1009 hPa | 0 mm | - | - | - |
* Rain latest hour (hover to see other rain measurements)
** Current wind speed in m/s (hover to see current wind gust speed)